1487462400.18,11148,11.38,73380.3,-11.37,-13.33,-14.33,0,*6E
1487462401.45,11149,11.38,73384.5,-11.37,-13.33,-14.23,0,*6E
1487462402.66,11150,11.38,73388.8,-11.39,-13.23,-14.11,0,*68
1487462403.91,11151,11.31,73382.5,-11.37,-13.19,-14.11,0,*6E
1487462405.15,11152,11.38,73380.0,-11.37,-13.19,-14.19,0,*65
1487462406.4,11153,11.31,73384.8,-11.37,-13.19,-14.23,0,*6D
1487462407.65,11154,11.31,73386.0,-11.37,-13.23,-14.23,0,*63
1487462408.89,11155,11.31,73384.3,-11.37,-13.23,-14.37,0,*67
1487462410.16,11156,11.38,73382.5,-11.37,-13.37,-14.33,0,*65
1487462411.43,11157,11.38,73384.8,-11.39,-13.37,-14.51,0,*6E
1487462412.66,11158,11.38,73384.5,-11.39,-13.43,-14.65,0,*65
1487462413.91,11159,11.38,73382.5,-11.39,-13.55,-14.79,0,*6E
1487462415.15,11160,11.38,73384.8,-11.39,-13.69,-14.93,0,*6F
1487462416.38,11161,11.38,73386.0,-11.39,-13.69,-15.11,0,*65
1487462417.63,11162,11.31,73384.8,-11.39,-13.83,-15.11,0,*62
1487462418.9,11163,11.38,73388.0,-11.37,-13.79,-15.11,0,*68
1487462420.18,11164,11.38,73386.5,-11.39,-13.83,-15.39,0,*6E
1487462421.47,11165,11.38,73388.5,-11.39,-13.97,-15.39,0,*6A
1487462422.73,11166,11.31,73384.3,-11.39,-13.97,-15.29,0,*68
1487462423.96,11167,11.38,73384.5,-11.39,-13.93,-15.29,0,*6D
1487462425.24,11168,11.38,73386.0,-11.39,-13.97,-15.39,0,*67
1487462426.51,11169,11.38,73390.5,-11.41,-13.97,-15.43,0,*64
1487462427.79,11170,11.38,73390.3,-11.41,-13.97,-15.39,0,*61
1487462429.06,11171,11.38,73390.3,-11.41,-13.97,-15.39,0,*60
1487462430.33,11172,11.31,73384.8,-11.41,-13.97,-15.39,0,*63
1487462431.56,11173,11.31,73384.3,-11.41,-14.11,-15.49,0,*6C
1487462432.8,11174,11.38,73388.8,-11.41,-14.01,-15.53,0,*61
1487462434.08,11175,11.38,73386.0,-11.41,-13.97,-15.43,0,*69
1487462435.35,11176,11.38,73388.8,-11.43,-14.01,-15.49,0,*6A
1487462436.6,11177,11.38,73386.5,-11.43,-14.11,-15.49,0,*6A
1487462437.85,11178,11.31,73384.0,-11.43,-14.11,-15.49,0,*65
1487462439.13,11179,11.38,73386.5,-11.43,-14.11,-15.43,0,*6E
1487462440.38,11180,11.38,73384.3,-11.41,-14.05,-15.29,0,*63
1487462441.62,11181,11.38,73386.3,-11.41,-13.93,-15.39,0,*6B
1487462442.83,11182,11.38,73384.8,-11.41,-13.93,-15.29,0,*69
1487462444.08,11183,11.31,73384.0,-11.41,-13.83,-15.25,0,*65
1487462445.38,11184,11.38,73386.5,-11.43,-13.83,-15.21,0,*64
1487462446.67,11185,11.31,73384.3,-11.43,-13.83,-15.21,0,*65
1487462447.95,11186,11.31,73384.0,-11.43,-13.83,-15.29,0,*6E
1487462449.22,11187,11.38,73386.3,-11.43,-13.87,-15.29,0,*6B
1487462450.51,11188,11.38,73384.5,-11.43,-13.83,-15.21,0,*68
1487462451.8,11189,11.38,73386.3,-11.43,-13.87,-15.21,0,*6D
1487462453.06,11190,11.38,73386.8,-11.43,-13.87,-15.15,0,*62
1487462454.3,11191,11.38,73384.5,-11.43,-13.73,-15.15,0,*68
1487462455.56,11192,11.38,73386.5,-11.43,-13.73,-15.01,0,*6E
1487462456.83,11193,11.38,73386.8,-11.43,-13.69,-15.01,0,*64
1487462458.09,11194,11.38,73388.8,-11.43,-13.73,-14.97,0,*66
1487462459.31,11195,11.38,73388.5,-11.45,-13.69,-14.89,0,*65
1487462460.55,11196,11.38,73388.0,-11.45,-13.61,-14.89,0,*6E
1487462461.77,11197,11.38,73386.3,-11.45,-13.55,-14.89,0,*68
1487462462.99,11198,11.38,73388.5,-11.45,-13.69,-14.89,0,*68
1487462464.25,11199,11.38,73390.8,-11.47,-13.73,-14.93,0,*6B
1487462465.52,11200,11.38,73388.0,-11.47,-13.65,-14.93,0,*6F
1487462466.73,11201,11.38,73386.5,-11.45,-13.55,-14.89,0,*64
1487462467.95,11202,11.38,73386.0,-11.45,-13.55,-14.89,0,*67
1487462469.19,11203,11.31,73382.5,-11.45,-13.55,-14.97,0,*69
1487462470.48,11204,11.38,73388.5,-11.47,-13.61,-15.01,0,*65
1487462471.7,11205,11.38,73390.0,-11.45,-13.55,-14.89,0,*60
1487462472.94,11206,11.31,73386.0,-11.45,-13.55,-14.93,0,*68
1487462474.15,11207,11.38,73388.5,-11.45,-13.47,-14.89,0,*61
1487462475.43,11208,11.38,73384.3,-11.47,-13.51,-14.93,0,*60
1487462476.66,11209,11.38,73386.8,-11.45,-13.47,-14.83,0,*65
1487462477.91,11210,11.38,73384.8,-11.47,-13.51,-14.89,0,*62
1487462479.14,11211,11.38,73390.5,-11.45,-13.51,-14.89,0,*61
1487462480.37,11212,11.38,73386.3,-11.45,-13.47,-14.79,0,*6A
1487462481.64,11213,11.31,73386.3,-11.47,-13.47,-14.79,0,*69
1487462482.9,11214,11.31,73386.5,-11.47,-13.47,-14.79,0,*6E
1487462484.15,11215,11.38,73386.0,-11.47,-13.51,-14.89,0,*67
1487462485.39,11216,11.38,73384.0,-11.45,-13.43,-14.83,0,*6F
1487462486.66,11217,11.38,73384.0,-11.47,-13.47,-14.79,0,*6D
1487462487.87,11218,11.38,73384.0,-11.45,-13.43,-14.69,0,*65
1487462489.16,11219,11.38,73388.0,-11.47,-13.37,-14.75,0,*68
1487462490.42,11220,11.38,73386.8,-11.47,-13.37,-14.65,0,*63
1487462491.69,11221,11.38,73386.0,-11.47,-13.37,-14.65,0,*62
1487462492.96,11222,11.38,73388.3,-11.47,-13.33,-14.65,0,*65
1487462494.2,11223,11.38,73390.3,-11.45,-13.33,-14.61,0,*62
1487462495.47,11224,11.31,73386.3,-11.47,-13.37,-14.61,0,*63
1487462496.73,11225,11.31,73384.8,-11.47,-13.29,-14.61,0,*6D
1487462498.0,11226,11.38,73386.0,-11.45,-13.29,-14.47,0,*68
1487462499.26,11227,11.38,73390.5,-11.47,-13.33,-14.61,0,*64
1487462500.53,11228,11.38,73390.5,-11.45,-13.29,-14.55,0,*65
1487462501.79,11229,11.31,73386.0,-11.47,-13.33,-14.61,0,*6A
1487462503.06,11230,11.31,73386.3,-11.47,-13.29,-14.61,0,*69
1487462504.35,11231,11.31,73386.5,-11.47,-13.29,-14.51,0,*6B
1487462505.62,11232,11.38,73388.5,-11.47,-13.29,-14.33,0,*6C
1487462506.91,11233,11.38,73388.8,-11.47,-13.33,-14.47,0,*65
1487462508.18,11234,11.31,73390.3,-11.47,-13.19,-14.47,0,*6A
1487462509.43,11235,11.38,73388.5,-11.45,-13.19,-14.47,0,*69
1487462510.69,11236,11.31,73388.3,-11.47,-13.29,-14.37,0,*6C
1487462511.96,11237,11.38,73388.5,-11.47,-13.29,-14.37,0,*6D
1487462513.2,11238,11.38,73390.8,-11.47,-13.19,-14.33,0,*65
1487462514.45,11239,11.38,73386.5,-11.47,-13.19,-14.23,0,*65
1487462515.69,11240,11.38,73390.3,-11.47,-13.19,-14.15,0,*6E
1487462516.94,11241,11.38,73388.5,-11.47,-13.19,-14.15,0,*6F
1487462518.18,11242,11.38,73388.3,-11.47,-13.19,-14.15,0,*6C
1487462519.42,11243,11.38,73388.5,-11.47,-13.15,-14.15,0,*61
1487462520.65,11244,11.38,73390.5,-11.47,-13.15,-14.15,0,*66
1487462521.92,11245,11.31,73386.3,-11.47,-13.07,-14.05,0,*65
1487462523.19,11246,11.38,73386.3,-11.47,-13.07,-14.01,0,*62
1487462524.48,11247,11.38,73388.5,-11.47,-13.01,-14.01,0,*65
1487462525.74,11248,11.31,73388.5,-11.47,-13.01,-13.93,0,*66
1487462527.01,11249,11.38,73388.8,-11.47,-13.07,-14.01,0,*6D
1487462528.27,11250,11.31,73388.8,-11.47,-13.15,-14.01,0,*66
1487462529.54,11251,11.38,73392.3,-11.47,-13.07,-14.01,0,*64
1487462530.8,11252,11.38,73390.0,-11.47,-13.07,-14.01,0,*67
1487462532.06,11253,11.31,73386.5,-11.45,-13.01,-13.87,0,*6B
1487462533.29,11254,11.38,73388.5,-11.47,-13.07,-13.93,0,*6D
1487462534.58,11255,11.38,73388.3,-11.47,-13.01,-13.87,0,*6F
1487462535.87,11256,11.31,73388.3,-11.47,-13.01,-13.87,0,*6C
1487462537.13,11257,11.38,73392.0,-11.47,-12.93,-13.79,0,*66
1487462538.36,11258,11.31,73390.0,-11.47,-12.93,-13.73,0,*63
1487462539.58,11259,11.38,73390.8,-11.49,-12.93,-13.73,0,*6C
1487462540.81,11260,11.38,73388.8,-11.47,-12.93,-13.73,0,*68
1487462542.02,11261,11.38,73392.3,-11.45,-12.89,-13.69,0,*6B
1487462543.26,11262,11.38,73388.3,-11.47,-12.93,-13.73,0,*6A
1487462544.5,11263,11.31,73384.3,-11.47,-12.89,-13.65,0,*67
1487462545.76,11264,11.31,73386.0,-11.47,-12.79,-13.51,0,*68
1487462547.05,11265,11.38,73386.5,-11.47,-12.79,-13.61,0,*6A
1487462548.32,11266,11.31,73384.3,-11.47,-12.89,-13.61,0,*66
1487462549.55,11267,11.38,73388.8,-11.45,-12.75,-13.47,0,*62
1487462550.78,11268,11.38,73388.8,-11.47,-12.89,-13.47,0,*6C
1487462552.04,11269,11.31,73384.3,-11.47,-12.79,-13.47,0,*62
1487462553.32,11270,11.31,73388.0,-11.47,-12.79,-13.37,0,*6D
1487462554.59,11271,11.38,73392.0,-11.45,-12.75,-13.29,0,*6D
1487462555.88,11272,11.38,73390.5,-11.47,-12.75,-13.33,0,*67
1487462557.17,11273,11.38,73388.3,-11.47,-12.75,-13.33,0,*66
1487462558.41,11274,11.38,73390.5,-11.45,-12.61,-13.23,0,*67
1487462559.68,11275,11.31,73386.8,-11.47,-12.61,-13.19,0,*6D
1487462560.94,11276,11.31,73386.0,-11.47,-12.61,-13.19,0,*6E
1487462562.2,11277,11.38,73388.5,-11.47,-12.61,-13.15,0,*63
1487462563.46,11278,11.31,73384.8,-11.47,-12.61,-13.15,0,*6C
1487462564.72,11279,11.31,73386.0,-11.47,-12.53,-13.07,0,*6F
1487462565.96,11280,11.31,73388.8,-11.45,-12.53,-13.11,0,*6C
1487462567.2,11281,11.31,73384.8,-11.45,-12.47,-13.01,0,*69
1487462568.46,11282,11.38,73386.8,-11.47,-12.53,-13.07,0,*6B
1487462569.68,11283,11.31,73384.0,-11.45,-12.47,-12.97,0,*65
1487462570.89,11284,11.31,73384.0,-11.45,-12.47,-12.89,0,*6D
1487462572.11,11285,11.31,73386.3,-11.45,-12.47,-12.89,0,*6C
1487462573.37,11286,11.38,73386.5,-11.47,-12.47,-13.01,0,*6C
1487462574.58,11287,11.38,73386.5,-11.45,-12.43,-12.89,0,*6A
1487462575.85,11288,11.38,73386.5,-11.47,-12.53,-12.97,0,*69
1487462577.08,11289,11.31,73384.8,-11.45,-12.43,-13.01,0,*65
1487462578.34,11290,11.38,73384.5,-11.47,-12.39,-13.01,0,*62
1487462579.58,11291,11.38,73388.0,-11.45,-12.35,-12.89,0,*6C
1487462580.84,11292,11.31,73386.8,-11.45,-12.35,-12.83,0,*65
1487462582.06,11293,11.38,73386.0,-11.45,-12.39,-12.93,0,*69
1487462583.32,11294,11.31,73384.8,-11.45,-12.35,-12.83,0,*63
1487462584.58,11295,11.31,73388.8,-11.45,-12.35,-12.83,0,*62
1487462585.85,11296,11.38,73390.0,-11.43,-12.35,-12.89,0,*6D
1487462587.09,11297,11.38,73388.3,-11.47,-12.39,-12.89,0,*64
1487462588.35,11298,11.31,73386.8,-11.45,-12.35,-12.83,0,*6F
1487462589.59,11299,11.31,73384.8,-11.47,-12.39,-12.89,0,*6A
1487462590.83,11300,11.31,73384.3,-11.45,-12.43,-12.83,0,*6E
1487462592.09,11301,11.31,73386.5,-11.45,-12.35,-12.83,0,*6E
1487462593.33,11302,11.38,73388.0,-11.45,-12.35,-12.89,0,*67
1487462594.57,11303,11.38,73384.0,-11.47,-12.39,-12.89,0,*68
1487462595.84,11304,11.38,73390.5,-11.45,-12.35,-12.83,0,*6B
1487462597.12,11305,11.38,73390.0,-11.43,-12.35,-12.83,0,*6C
1487462598.41,11306,11.38,73390.3,-11.43,-12.35,-12.83,0,*6F
1487462599.68,11307,11.31,73390.0,-11.43,-12.35,-12.89,0,*64
1487462600.91,11308,11.38,73390.3,-11.43,-12.43,-12.97,0,*65
1487462602.15,11309,11.38,73388.3,-11.43,-12.43,-12.97,0,*64
1487462603.38,11310,11.38,73388.0,-11.43,-12.43,-12.89,0,*63
1487462604.62,11311,11.38,73390.3,-11.43,-12.43,-12.97,0,*6D
1487462605.88,11312,11.31,73386.5,-11.43,-12.35,-12.97,0,*6F
1487462607.15,11313,11.31,73390.0,-11.43,-12.35,-12.89,0,*61
1487462608.41,11314,11.38,73388.8,-11.43,-12.35,-12.97,0,*69
1487462609.65,11315,11.38,73390.0,-11.43,-12.43,-12.97,0,*69
1487462610.88,11316,11.38,73388.5,-11.43,-12.43,-12.97,0,*6A
1487462612.15,11317,11.38,73388.3,-11.43,-12.35,-12.97,0,*6A
1487462613.38,11318,11.31,73382.0,-11.43,-12.43,-13.11,0,*6B
1487462614.61,11319,11.38,73386.5,-11.45,-12.43,-13.01,0,*6D
1487462615.87,11320,11.31,73386.5,-11.43,-12.43,-13.01,0,*61
1487462617.12,11321,11.38,73388.3,-11.43,-12.43,-13.01,0,*60
1487462618.38,11322,11.31,73384.0,-11.43,-12.43,-13.01,0,*63
1487462619.61,11323,11.31,73382.3,-11.43,-12.43,-13.11,0,*63
1487462620.86,11324,11.31,73384.8,-11.43,-12.43,-13.01,0,*65
1487462622.15,11325,11.38,73386.0,-11.43,-12.35,-13.01,0,*65
1487462623.35,11326,11.31,73384.8,-11.41,-12.39,-13.07,0,*6E
1487462624.55,11327,11.31,73382.5,-11.41,-12.39,-13.07,0,*6F
1487462625.82,11328,11.31,73384.0,-11.43,-12.35,-13.11,0,*69
1487462627.03,11329,11.38,73386.3,-11.41,-12.29,-13.07,0,*60
1487462628.29,11330,11.31,73384.3,-11.43,-12.35,-13.11,0,*60
1487462629.52,11331,11.38,73388.3,-11.43,-12.47,-13.11,0,*64
1487462630.76,11332,11.38,73390.3,-11.43,-12.43,-13.15,0,*67
1487462631.97,11333,11.31,73386.5,-11.41,-12.29,-13.11,0,*6C
1487462633.23,11334,11.31,73386.5,-11.43,-12.35,-13.15,0,*60
1487462634.43,11335,11.38,73388.3,-11.41,-12.43,-13.11,0,*66
1487462635.67,11336,11.38,73386.3,-11.43,-12.43,-13.11,0,*67
1487462636.87,11337,11.31,73384.5,-11.41,-12.39,-13.07,0,*6E
1487462638.15,11338,11.38,73388.3,-11.43,-12.35,-13.01,0,*69
1487462639.39,11339,11.31,73386.8,-11.41,-12.35,-13.11,0,*6B
1487462640.65,11340,11.31,73386.0,-11.43,-12.35,-13.11,0,*67
1487462641.86,11341,11.31,73386.5,-11.41,-12.29,-13.07,0,*6E
1487462643.06,11342,11.31,73388.8,-11.41,-12.39,-13.07,0,*6C
1487462644.3,11343,11.38,73388.0,-11.43,-12.43,-13.11,0,*65
1487462645.5,11344,11.31,73384.8,-11.41,-12.39,-13.07,0,*6A
1487462646.76,11345,11.31,73386.5,-11.43,-12.43,-13.01,0,*62
1487462647.99,11346,11.31,73388.8,-11.43,-12.43,-13.11,0,*60
1487462649.19,11347,11.38,73390.3,-11.41,-12.39,-13.07,0,*69
1487462650.4,11348,11.31,73384.3,-11.41,-12.39,-13.07,0,*66
1487462651.63,11349,11.31,73388.8,-11.43,-12.43,-13.11,0,*6F
1487462652.84,11350,11.38,73390.3,-11.41,-12.39,-12.93,0,*63
1487462654.05,11351,11.38,73390.0,-11.41,-12.39,-12.93,0,*62
1487462655.26,11352,11.38,73390.0,-11.41,-12.29,-12.97,0,*64
1487462656.48,11353,11.38,73390.3,-11.41,-12.29,-12.97,0,*65
1487462657.74,11354,11.38,73390.3,-11.43,-12.35,-12.97,0,*6D
1487462659.01,11355,11.31,73390.3,-11.43,-12.35,-12.97,0,*6C
1487462660.27,11356,11.31,73388.0,-11.43,-12.35,-12.89,0,*60
1487462661.48,11357,11.38,73390.0,-11.41,-12.39,-12.97,0,*60
1487462662.69,11358,11.38,73388.5,-11.41,-12.39,-13.07,0,*67
1487462663.89,11359,11.31,73386.8,-11.41,-12.39,-13.07,0,*66
1487462665.15,11360,11.31,73386.8,-11.43,-12.35,-13.11,0,*65
1487462666.41,11361,11.31,73384.8,-11.43,-12.43,-13.01,0,*64
1487462667.62,11362,11.38,73388.3,-11.41,-12.29,-13.07,0,*6F
1487462668.85,11363,11.38,73392.3,-11.43,-12.43,-13.11,0,*67
1487462670.05,11364,11.31,73384.8,-11.41,-12.39,-13.07,0,*68
1487462671.26,11365,11.31,73386.3,-11.41,-12.39,-13.07,0,*69
1487462672.46,11366,11.38,73386.8,-11.41,-12.39,-13.11,0,*6D
1487462673.69,11367,11.31,73384.8,-11.43,-12.43,-13.15,0,*67
1487462674.91,11368,11.31,73388.0,-11.41,-12.39,-13.19,0,*6B
1487462676.13,11369,11.31,73390.3,-11.39,-12.43,-13.11,0,*60
1487462677.36,11370,11.31,73388.3,-11.43,-12.47,-13.15,0,*65
1487462678.57,11371,11.31,73390.0,-11.41,-12.39,-13.19,0,*63
1487462679.78,11372,11.31,73388.3,-11.41,-12.39,-13.23,0,*69
1487462680.99,11373,11.31,73392.0,-11.41,-12.39,-13.23,0,*68
1487462682.22,11374,11.31,73394.0,-11.41,-12.43,-13.37,0,*67
1487462683.48,11375,11.31,73390.5,-11.41,-12.53,-13.37,0,*67
1487462684.71,11376,11.38,73390.5,-11.41,-12.53,-13.23,0,*61
1487462685.95,11377,11.31,73388.0,-11.41,-12.53,-13.43,0,*66
1487462687.21,11378,11.31,73388.0,-11.41,-12.53,-13.37,0,*6A
1487462688.47,11379,11.31,73388.5,-11.41,-12.53,-13.37,0,*6B
1487462689.7,11380,11.31,73394.3,-11.41,-12.57,-13.43,0,*6A
1487462690.96,11381,11.38,73396.0,-11.41,-12.57,-13.37,0,*68
1487462692.19,11382,11.31,73392.0,-11.41,-12.53,-13.51,0,*6F
1487462693.42,11383,11.31,73390.3,-11.41,-12.43,-13.29,0,*60
1487462694.63,11384,11.31,73388.5,-11.41,-12.43,-13.23,0,*6D
1487462695.84,11385,11.38,73390.8,-11.41,-12.43,-13.19,0,*65
1487462697.08,11386,11.31,73386.3,-11.43,-12.47,-13.23,0,*69
1487462698.29,11387,11.31,73384.3,-11.41,-12.39,-13.19,0,*6A
1487462699.5,11388,11.31,73384.8,-11.41,-12.39,-13.07,0,*6A
1487462700.7,11389,11.38,73388.0,-11.41,-12.39,-13.07,0,*6B
1487462701.91,11390,11.31,73390.3,-11.41,-12.39,-13.07,0,*63
1487462703.12,11391,11.38,73390.5,-11.41,-12.43,-13.19,0,*60
1487462704.38,11392,11.31,73388.0,-11.41,-12.53,-13.29,0,*61
1487462705.59,11393,11.38,73390.0,-11.41,-12.43,-13.23,0,*6B
1487462706.79,11394,11.31,73390.5,-11.41,-12.43,-13.23,0,*6C
1487462708.01,11395,11.31,73390.5,-11.41,-12.43,-13.19,0,*64
1487462709.22,11396,11.31,73388.5,-11.41,-12.39,-13.19,0,*6A
1487462710.46,11397,11.31,73388.5,-11.41,-12.53,-13.19,0,*67
1487462711.69,11398,11.38,73392.0,-11.41,-12.43,-13.29,0,*6A
1487462712.93,11399,11.31,73388.0,-11.41,-12.53,-13.51,0,*65
1487462714.16,11400,11.38,73392.3,-11.41,-12.65,-13.69,0,*6C
1487462715.42,11401,11.38,73388.8,-11.39,-12.65,-13.79,0,*63
1487462716.68,11402,11.31,73390.5,-11.39,-12.79,-13.79,0,*6D
1487462717.95,11403,11.31,73390.5,-11.39,-12.71,-13.79,0,*64
1487462719.21,11404,11.31,73390.3,-11.39,-12.79,-13.83,0,*6E
1487462720.48,11405,11.38,73394.5,-11.39,-12.79,-13.83,0,*6F
1487462721.73,11406,11.31,73384.8,-11.41,-12.79,-13.83,0,*63
1487462722.98,11407,11.31,73390.3,-11.41,-12.79,-13.79,0,*67
1487462724.23,11408,11.31,73390.3,-11.41,-12.83,-13.87,0,*6C
1487462725.49,11409,11.31,73388.5,-11.41,-12.79,-13.79,0,*69
1487462726.74,11410,11.31,73388.5,-11.41,-12.83,-13.83,0,*61
1487462727.99,11411,11.31,73392.3,-11.41,-12.83,-14.05,0,*69
1487462729.21,11412,11.31,73390.5,-11.41,-12.93,-14.23,0,*6F
1487462730.44,11413,11.31,73390.5,-11.43,-13.07,-14.37,0,*65
1487462731.65,11414,11.31,73390.8,-11.41,-13.11,-14.65,0,*60
1487462732.89,11415,11.31,73390.8,-11.41,-13.11,-14.55,0,*62
1487462734.12,11416,11.31,73392.0,-11.43,-13.15,-14.61,0,*60
1487462735.36,11417,11.38,73392.5,-11.43,-13.23,-14.61,0,*64
1487462736.59,11418,11.31,73388.0,-11.39,-13.19,-14.65,0,*6B
1487462737.87,11419,11.38,73390.5,-11.43,-13.33,-14.75,0,*6E
1487462739.14,11420,11.31,73392.0,-11.41,-13.37,-14.79,0,*6E
1487462740.37,11421,11.31,73388.0,-11.41,-13.43,-14.97,0,*6C
1487462741.58,11422,11.31,73388.3,-11.41,-13.43,-15.11,0,*60
1487462742.8,11423,11.38,73390.0,-11.41,-13.43,-15.11,0,*61
1487462744.04,11424,11.31,73390.0,-11.43,-13.55,-15.15,0,*67
1487462745.25,11425,11.31,73388.5,-11.41,-13.55,-15.25,0,*67
1487462746.52,11426,11.31,73388.5,-11.43,-13.73,-15.35,0,*63
1487462747.76,11427,11.31,73388.5,-11.43,-13.73,-15.49,0,*69
1487462749.03,11428,11.31,73392.8,-11.43,-13.69,-15.57,0,*62
1487462750.3,11429,11.31,73392.3,-11.43,-13.83,-15.71,0,*63
1487462751.56,11430,11.31,73392.5,-11.43,-13.87,-15.63,0,*6C
1487462752.83,11431,11.31,73388.5,-11.43,-13.87,-15.75,0,*6A
1487462754.09,11432,11.31,73388.0,-11.45,-13.87,-15.85,0,*60
1487462755.37,11433,11.31,73390.0,-11.45,-13.97,-15.85,0,*60
1487462756.67,11434,11.31,73388.8,-11.47,-14.01,-15.81,0,*69
1487462757.94,11435,11.31,73390.0,-11.45,-13.97,-15.85,0,*66
1487462759.21,11436,11.38,73394.8,-11.47,-14.05,-16.03,0,*66
1487462760.46,11437,11.31,73392.5,-11.45,-14.01,-15.99,0,*61
1487462761.73,11438,11.31,73390.5,-11.47,-14.05,-16.03,0,*68
1487462763.03,11439,11.31,73390.3,-11.47,-14.05,-15.89,0,*68
1487462764.33,11440,11.31,73384.3,-11.47,-14.05,-16.09,0,*6D
1487462765.63,11441,11.31,73390.5,-11.47,-14.05,-16.09,0,*6C
1487462766.93,11442,11.38,73392.0,-11.47,-14.01,-16.13,0,*60
1487462768.2,11443,11.31,73388.0,-11.47,-14.01,-16.03,0,*60
1487462769.5,11444,11.31,73390.8,-11.47,-14.01,-16.09,0,*6D
1487462770.8,11445,11.31,73390.0,-11.47,-14.05,-16.13,0,*63
1487462772.1,11446,11.31,73388.5,-11.47,-14.05,-16.09,0,*6B
1487462773.4,11447,11.31,73390.3,-11.47,-14.05,-16.09,0,*6A
1487462774.67,11448,11.31,73388.5,-11.49,-14.05,-16.13,0,*60
1487462775.94,11449,11.31,73388.0,-11.51,-14.23,-16.13,0,*6C
1487462777.2,11450,11.31,73390.8,-11.49,-14.15,-16.09,0,*63
1487462778.47,11451,11.38,73394.5,-11.51,-14.19,-16.13,0,*6C
1487462779.71,11452,11.31,73390.0,-11.49,-14.19,-16.09,0,*6D
1487462780.99,11453,11.31,73388.5,-11.51,-14.19,-16.17,0,*6A
1487462782.26,11454,11.31,73394.0,-11.51,-14.23,-16.13,0,*60
1487462783.48,11455,11.31,73390.5,-11.49,-14.19,-15.99,0,*60
1487462784.75,11456,11.38,73394.5,-11.51,-14.19,-16.09,0,*60
1487462785.99,11457,11.38,73392.3,-11.51,-14.19,-15.99,0,*6B
1487462787.23,11458,11.31,73388.5,-11.51,-14.19,-15.99,0,*64
1487462788.46,11459,11.31,73390.5,-11.49,-14.15,-15.95,0,*6C
1487462789.7,11460,11.31,73392.5,-11.51,-14.19,-15.99,0,*6F
1487462790.94,11461,11.31,73390.3,-11.51,-14.19,-15.99,0,*6E
1487462792.22,11462,11.31,73388.8,-11.51,-14.19,-16.09,0,*67
1487462793.46,11463,11.31,73388.0,-11.51,-14.19,-15.99,0,*6C
1487462794.71,11464,11.31,73390.3,-11.55,-14.19,-15.99,0,*6F
1487462795.95,11465,11.31,73390.8,-11.57,-14.23,-16.13,0,*64
1487462797.2,11466,11.38,73392.3,-11.55,-14.19,-15.99,0,*6D
1487462798.44,11467,11.38,73392.0,-11.57,-14.23,-16.13,0,*66
1487462799.69,11468,11.31,73390.3,-11.55,-14.19,-15.99,0,*63
1487462800.93,11469,11.38,73390.8,-11.55,-14.11,-15.99,0,*6A
1487462802.16,11470,11.31,73388.3,-11.57,-14.15,-16.03,0,*64
1487462803.4,11471,11.31,73388.3,-11.55,-14.11,-15.99,0,*63
1487462804.65,11472,11.31,73390.3,-11.57,-14.05,-16.03,0,*67
1487462805.86,11473,11.31,73388.8,-11.57,-14.11,-16.03,0,*63
1487462807.11,11474,11.31,73390.0,-11.57,-14.11,-15.89,0,*65
1487462808.41,11475,11.38,73394.5,-11.55,-13.97,-15.85,0,*63
1487462809.68,11476,11.38,73394.5,-11.57,-14.01,-15.85,0,*6A
1487462810.95,11477,11.31,73390.8,-11.57,-13.97,-15.85,0,*63
1487462812.23,11478,11.31,73394.8,-11.57,-13.97,-15.85,0,*6C
1487462813.5,11479,11.38,73394.0,-11.57,-14.01,-15.85,0,*65
1487462814.77,11480,11.31,73390.3,-11.57,-13.97,-15.89,0,*67
1487462816.07,11481,11.31,73384.0,-11.55,-14.05,-15.85,0,*64
1487462817.29,11482,11.31,73384.0,-11.57,-14.11,-15.71,0,*6B
1487462818.57,11483,11.31,73386.5,-11.59,-14.01,-15.75,0,*61
1487462819.85,11484,11.31,73390.0,-11.59,-13.97,-15.75,0,*6E
1487462821.12,11485,11.31,73388.0,-11.59,-13.97,-15.63,0,*68
1487462822.42,11486,11.31,73388.8,-11.59,-13.97,-15.57,0,*6C
1487462823.67,11487,11.31,73390.5,-11.61,-13.97,-15.53,0,*62
1487462824.95,11488,11.31,73388.0,-11.59,-13.97,-15.49,0,*6D
1487462826.25,11489,11.31,73386.3,-11.59,-13.87,-15.57,0,*62
1487462827.54,11490,11.38,73390.8,-11.59,-13.87,-15.43,0,*6F
1487462828.84,11491,11.31,73388.0,-11.59,-13.83,-15.43,0,*6A
1487462830.08,11492,11.31,73388.3,-11.61,-13.93,-15.39,0,*6E
1487462831.35,11493,11.31,73390.0,-11.61,-13.87,-15.35,0,*66
1487462832.59,11494,11.31,73384.3,-11.61,-13.93,-15.35,0,*64
1487462833.85,11495,11.31,73386.0,-11.61,-13.87,-15.35,0,*60
1487462835.11,11496,11.31,73388.0,-11.61,-13.79,-15.21,0,*67
1487462836.38,11497,11.31,73390.8,-11.59,-13.69,-15.01,0,*6E
1487462837.6,11498,11.31,73388.3,-11.61,-13.73,-15.15,0,*64
1487462838.81,11499,11.31,73384.8,-11.61,-13.73,-15.07,0,*66
1487462840.03,11500,11.31,73382.8,-11.61,-13.73,-15.15,0,*64
1487462841.24,11501,11.31,73386.0,-11.61,-13.73,-15.07,0,*66
1487462842.46,11502,11.31,73388.0,-11.61,-13.73,-15.07,0,*65
1487462843.7,11503,11.31,73384.3,-11.61,-13.65,-15.01,0,*65
1487462844.93,11504,11.31,73386.5,-11.61,-13.65,-15.01,0,*62
1487462846.17,11505,11.31,73390.0,-11.61,-13.65,-14.93,0,*69
1487462847.44,11506,11.31,73390.5,-11.67,-13.65,-14.97,0,*68
1487462848.68,11507,11.31,73390.5,-11.65,-13.65,-14.93,0,*6F
1487462849.94,11508,11.31,73390.5,-11.61,-13.61,-14.93,0,*60
1487462851.19,11509,11.31,73390.3,-11.61,-13.51,-14.75,0,*6A
1487462852.4,11510,11.31,73388.5,-11.61,-13.47,-14.65,0,*64
1487462853.65,11511,11.31,73388.3,-11.61,-13.51,-14.75,0,*63
1487462854.86,11512,11.31,73386.3,-11.61,-13.47,-14.65,0,*66
1487462856.07,11513,11.31,73386.5,-11.61,-13.47,-14.61,0,*63
1487462857.31,11514,11.31,73390.8,-11.61,-13.43,-14.51,0,*63
1487462858.52,11515,11.31,73390.3,-11.61,-13.43,-14.61,0,*61
1487462859.77,11516,11.31,73392.3,-11.61,-13.43,-14.47,0,*66
1487462861.03,11517,11.31,73390.3,-11.61,-13.33,-14.47,0,*60
1487462862.27,11518,11.31,73388.3,-11.65,-13.47,-14.43,0,*6C
1487462863.48,11519,11.31,73386.8,-11.61,-13.43,-14.37,0,*6E
1487462864.72,11520,11.31,73390.8,-11.61,-13.33,-14.37,0,*63
1487462865.95,11521,11.31,73390.3,-11.61,-13.33,-14.33,0,*66
1487462867.19,11522,11.31,73388.3,-11.61,-13.33,-14.29,0,*6E
1487462868.43,11523,11.31,73390.8,-11.61,-13.33,-14.29,0,*6F
1487462869.67,11524,11.31,73390.3,-11.65,-13.33,-14.33,0,*67
1487462870.91,11525,11.31,73390.5,-11.65,-13.33,-14.23,0,*67
1487462872.15,11526,11.31,73394.3,-11.65,-13.33,-14.19,0,*6D
1487462873.37,11527,11.31,73392.8,-11.65,-13.23,-14.19,0,*6D
1487462874.61,11528,11.31,73390.5,-11.61,-13.19,-14.01,0,*66
1487462875.85,11529,11.31,73392.0,-11.61,-13.15,-14.01,0,*6B
1487462877.08,11530,11.31,73392.3,-11.61,-13.15,-14.01,0,*63
1487462878.32,11531,11.31,73390.0,-11.61,-13.07,-14.01,0,*61
1487462879.53,11532,11.31,73392.5,-11.61,-13.07,-13.93,0,*6E
1487462880.76,11533,11.31,73388.0,-11.61,-13.07,-13.87,0,*6A
1487462882.0,11534,11.31,73388.5,-11.61,-13.07,-13.87,0,*6D
1487462883.22,11535,11.31,73390.8,-11.61,-13.15,-13.79,0,*6E
1487462884.45,11536,11.31,73392.3,-11.61,-13.15,-13.79,0,*6D
1487462885.69,11537,11.31,73390.5,-11.61,-13.01,-13.73,0,*63
1487462886.9,11538,11.31,73392.5,-11.61,-13.07,-13.73,0,*6A
1487462888.19,11539,11.31,73390.5,-11.59,-13.01,-13.61,0,*65
1487462889.45,11540,11.31,73394.8,-11.61,-13.01,-13.61,0,*60
1487462890.67,11541,11.31,73394.5,-11.65,-12.97,-13.69,0,*63